{"data":{"norad_id":39498,"epoch":"2026-05-25T02:23:00.638016Z","epoch_age_seconds":69553,"freshness":"FRESH","line1":"1 39498U 14001A   26145.09931294 -.00000079  00000+0  00000+0 0  9999","line2":"2 39498   0.0474 108.6954 0000572 250.6846 353.0715  1.00271328 45140","mean_motion":1.00271328,"eccentricity":5.72e-5,"inclination_deg":0.0474,"raan_deg":108.6954,"arg_perigee_deg":250.6846,"mean_anomaly_deg":353.0715,"bstar":0,"rev_number":4514,"period_min":1436.1034492333,"perigee_km":35784.311245371,"apogee_km":35789.134905363,"semimajor_km":42164.860075367,"source":"CELESTRAK","updated_at":"2026-05-25T13:38:13.947647Z"}}